[Iaude] MPEC R52: 2023 RC1 [a=0.91,e=0.20,i=4.6,H=28.8]
    mpec at marsden.cfa.harvard.edu 
    mpec at marsden.cfa.harvard.edu
       
    Thu Sep  7 23:43:10 EDT 2023
    
    
  
M.P.E.C. 2023-R52                             Issued 2023 September 8, 03:41 UT
     The Minor Planet Electronic Circulars contain information on unusual
         minor planets, routine data on comets and natural satellites,
         and occasional editorial announcements.  They are published
    on behalf of Division F of the International Astronomical Union by the
          Minor Planet Center, Smithsonian Astrophysical Observatory,
                          Cambridge, MA 02138, U.S.A.
			  
             Prepared using the Tamkin Foundation Computer Network
                              MPC at CFA.HARVARD.EDU
            URL https://www.minorplanetcenter.net/    ISSN 1523-6714
                                    2023 RC1                                    
Observations:
     K23R01C*1C2023 09 06.35779200 16 57.464-04 49 00.30         21.22GVER052G96
     K23R01C 1C2023 09 06.36294700 16 52.723-04 48 24.26         20.85GVER052G96
     K23R01C 1C2023 09 06.36810200 16 47.932-04 47 49.06         20.80GVER052G96
     K23R01C 1C2023 09 06.37325600 16 43.010-04 47 12.05         20.84GVER052G96
     K23R01C 1C2023 09 06.48913400 14 54.798-04 33 22.43         20.74GVER052G96
     K23R01C 1C2023 09 06.48960700 14 54.398-04 33 18.36         21.34GVER052G96
     K23R01C 1C2023 09 06.49008000 14 53.959-04 33 15.88         20.68GVER052G96
     K23R01C 1C2023 09 06.49055300 14 53.560-04 33 11.59         20.73GVER052G96
     K23R01C 1C2023 09 07.39680800 01 16.248-02 28 15.42         20.32GVER052G96
     K23R01C 1C2023 09 07.39700300 01 15.989-02 28 13.33         20.65GVER052G96
     K23R01C 1C2023 09 07.39719800 01 15.719-02 28 10.92         21.63GVER052G96
     K23R01C 1C2023 09 07.39739200 01 15.467-02 28 09.26         20.63GVER052G96
     K23R01C 1C2023 09 08.02865 23 49 09.02 -00 39 44.0          19.9 VXER052033
     K23R01C 1C2023 09 08.02940 23 49 07.97 -00 39 35.6          19.8 VXER052033
     K23R01C 1C2023 09 08.03015 23 49 06.81 -00 39 27.0          19.9 VXER052033
     K23R01C KB2023 09 08.09043523 47 43.11 -00 26 52.5          20.1 GVER052I93
     K23R01C KB2023 09 08.09722923 47 33.04 -00 25 31.2          19.8 GVER052I93
Observer details:
033 Karl Schwarzschild Observatory, Tautenburg.  Observers S. Melnikov, C.
    Hoegner, F. Ludwig, M. Hartmann, B. Stecklum.  Measurer B. Stecklum.
    1.34-m f/3 Schmidt + CCD.
G96 Mt. Lemmon Survey.  Observer A. R. Gibbs.  Measurers E. J. Christensen, D.
    Fay, J. B. Fazekas, D. C. Fuls, A. R. Gibbs, A. D. Grauer, H. Groeller, J.
    K. Hogan, R. A. Kowalski, S. M. Larson, G. J. Leonard, D. Rankin, R. L.
    Seaman, A. Serrano, F. C. Shelly, K. W. Wierzchos.  1.5-m reflector + 10K
    CCD.
I93 St Pardon de Conques.  Observer F. Losse.  0.40-m f/3.7 reflector + CMO.
Orbital elements:
2023 RC1                                                 Earth MOID = 0.0071 AU
Epoch 2023 Sept. 13.0 TT = JDT 2460200.5                Veres                   
M 244.33008              (2000.0)            P               Q                  
n   1.14296295     Peri.  138.51521     -0.55011528     -0.83482390             
a   0.9059717      Node   344.82128     +0.74345901     -0.47813015             
e   0.1991768      Incl.    4.60682     +0.38031814     -0.27287474             
P   0.86           H   28.80          G   0.15           U   7                  
Residuals in seconds of arc
230906 G96  0.9-  0.7+    230906 G96  0.2+  0.2-    230908 033  0.1+  0.6-
230906 G96  0.3+  0.9+    230906 G96  0.7+  0.6+    230908 033  0.6+  0.9-
230906 G96  0.8+  0.3+    230907 G96  0.7+  0.6-    230908 033  0.6-  1.1-
230906 G96  0.5-  1.3+    230907 G96  0.4+  0.4-    230908 I93  0.2-  0.7-
230906 G96  0.3-  0.2+    230907 G96  0.0   0.2+    230908 I93  0.3-  0.3-
230906 G96  0.2+  0.8+    230907 G96  0.2-  0.0
Ephemeris:
2023 RC1                 a,e,i = 0.91, 0.20, 5                   q = 0.7255
Date    TT    R. A. (2000) Decl.     Delta      r    Elong.  Phase     V
2023 08 09    01 11 43.0 -15 03 59   0.1034  1.0735   122.8    52.6    26.0
...
2023 08 24    01 11 30.4 -13 14 54   0.05751 1.0530   135.5    42.3    24.4
...
2023 09 01    00 55 10.7 -10 30 21   0.03397 1.0378   146.3    32.7    22.9
...
2023 09 07    00 07 56.3 -03 22 29   0.01730 1.0245   162.9    16.8    20.9
2023 09 08    23 49 51.5 -00 37 40   0.01477 1.0221   167.3    12.5    20.4
2023 09 09    23 24 34.9 +03 11 54   0.01242 1.0197   170.2     9.7    19.9
...
2023 09 15    16 53 38.7 +30 21 11   0.01133 1.0041    80.7    98.7    22.6
...
2023 09 23    14 37 52.6 +22 17 15   0.03207 0.9812    44.8   133.9    27.4
...
2023 10 08    13 56 38.3 +17 43 15   0.07662 0.9326    28.2   149.5    31.4
M. P. C. Staff               (C) Copyright 2023 MPC           M.P.E.C. 2023-R52
    
    
More information about the Iaude
mailing list